Weather Service Report


191 
ASUS43 KDTX 030010
RWRMI 
MICHIGAN HOURLY REGIONAL WEATHER ROUNDUP
NATIONAL WEATHER SERVICE DETROIT/PONTIAC MI
800 PM EDT THU JUL 02 2015

NOTE: "FAIR" INDICATES FEW OR NO CLOUDS BELOW 12,000 FEET WITH NO
SIGNIFICANT WEATHER AND/OR OBSTRUCTION TO VISIBILITY.

MIZ047>049-052>055-059>063-066>070-074>076-081>083-030100-
SOUTHEAST LOWER MICHIGAN
  
CITY           SKY/WX    TMP DP  RH WIND       PRES   REMARKS
ADRIAN         SUNNY     71  54  54 NE6       29.97S                  
6HR MIN TEMP:  70; 6HR MAX TEMP:  75;                                

ALMA           SUNNY     69  47  46 E7        30.01S                  
ANN ARBOR      SUNNY     71  52  50 NE8       29.97S                  
BAD AXE        SUNNY     64  45  51 NE3       30.03R                  
CARO           SUNNY     67  48  50 N8        30.00S                  
DETROIT CITY   SUNNY     68  47  46 E10       29.98S                  
6HR MIN TEMP:  68; 6HR MAX TEMP:  73;                                

DETROIT        MOSUNNY   70  50  49 NE6       29.98R                  
6HR MIN TEMP:  70; 6HR MAX TEMP:  76;                                

FLINT          PTSUNNY   71  52  50 N7        30.00R                  
6HR MIN TEMP:  71; 6HR MAX TEMP:  76;                                

GROSSE ILE     SUNNY     70  52  52 E7        29.97S                  
HILLSDALE      SUNNY     70  54  56 CALM      29.98R                  
HOWELL         MOSUNNY   69  53  57 N3        29.99S                  
6HR MIN TEMP:  68; 6HR MAX TEMP:  73;                                


CITY           SKY/WX    TMP DP  RH WIND       PRES   REMARKS
JACKSON        MOSUNNY   69  53  56 NE8       29.98S                  
6HR MIN TEMP:  68; 6HR MAX TEMP:  74;                                

LAMBERTVILLE   SUNNY     70  55  58 E5        29.97S                  
6HR MIN TEMP:  70; 6HR MAX TEMP:  73;                                

LANSING        SUNNY     69  51  52 NE9       30.00S                  
6HR MIN TEMP:  68; 6HR MAX TEMP:  73;                                

LAPEER         FAIR      65  49  55 CALM      30.01R                  
MASON          SUNNY     67  52  59 NE5       29.99S                  
MONROE         SUNNY     68  57  68 E6        29.96S                  
6HR MIN TEMP:  68; 6HR MAX TEMP:  73;                                

MT. CLEMENS    MOSUNNY   67  49  53 NE9       29.98R                  
6HR MIN TEMP:  67; 6HR MAX TEMP:  71;                                

PONTIAC        MOSUNNY   68  50  52 NE7       29.99R                  
6HR MIN TEMP:  68; 6HR MAX TEMP:  73;                                

PORT HOPE        N/A     62  50  64 VRB3      30.01F                  
6HR MIN TEMP:  59; 6HR MAX TEMP:  63;                                

PORT HURON     SUNNY     63  50  63 N5        30.01S                  
TRI CITIES     SUNNY     69  46  43 NE9       30.02R                  
6HR MIN TEMP:  69; 6HR MAX TEMP:  72;                                

MIDLAND        FAIR      67  46  46 E7        30.02R                  
TROY           SUNNY     70  48  45 NE7       30.01R                  
SAGINAW HB     SUNNY     68  45  42 N8        30.01S                  
$$
MIZ043>046-050>051-056>058-064>065-071>073-077>080-030100-
SOUTHWEST LOWER MICHIGAN
  
CITY           SKY/WX    TMP DP  RH WIND       PRES   REMARKS
BATTLE CREEK   SUNNY     72  53  51 NE9       29.98S                  
6HR MIN TEMP:  71; 6HR MAX TEMP:  75;                                

BENTON HARBOR  SUNNY     62  55  77 VRB7      29.97S                  
6HR MIN TEMP:  62; 6HR MAX TEMP:  76;                                

BIG RAPIDS     SUNNY     71  41  34 E6        29.99S                  
6HR MIN TEMP:  70; 6HR MAX TEMP:  73;                                

COLDWATER      SUNNY     69  53  55 NE6       29.96F                  
6HR MIN TEMP:  68; 6HR MAX TEMP:  73;                                

FREMONT        FAIR      72  46  39 SE6       29.98S                  
HOLLAND        SUNNY     70  53  54 NW5       29.98F                  
6HR MIN TEMP:  70; 6HR MAX TEMP:  76;                                

GRAND RAPIDS   MOSUNNY   69  52  54 E8        29.99S                  
6HR MIN TEMP:  69; 6HR MAX TEMP:  74;                                

IONIA          FAIR      68  50  52 NE7       29.99S HAZE             
KALAMAZOO      SUNNY     72  52  49 VRB7      29.97F                  
6HR MIN TEMP:  70; 6HR MAX TEMP:  75;                                

LUDINGTON      SUNNY     68  48  48 N9        30.00S                  
6HR MIN TEMP:  68; 6HR MAX TEMP:  76;                                

MARSHALL       SUNNY     69  53  55 CALM      29.98R                  
MOUNT PLEASANT SUNNY     69  50  49 E7        30.00S                  
6HR MIN TEMP:  69; 6HR MAX TEMP:  74;                                

MUSKEGON       MOSUNNY   70  52  52 NW7       29.98S                  
6HR MIN TEMP:  70; 6HR MAX TEMP:  76;                                

SOUTH HAVEN    SUNNY     63  51  64 N7        29.97S                  
$$
MIZ016>042-030100-
NORTHERN LOWER MICHIGAN
  
CITY           SKY/WX    TMP DP  RH WIND       PRES   REMARKS
ALPENA         SUNNY     70  38  31 CALM      30.01S                  
6HR MIN TEMP:  70; 6HR MAX TEMP:  73;                                

BEAVER ISLAND  SUNNY     64  44  48 SW5       30.01S                  
6HR MIN TEMP:  64; 6HR MAX TEMP:  71;                                

BELLAIRE       MOSUNNY   68  47  45 CALM      30.00S                  
6HR MIN TEMP:  68; 6HR MAX TEMP:  75;                                

CADILLAC       SUNNY     70  46  41 SE6       30.00S                  
CHARLEVOIX     SUNNY     66  46  48 CALM      30.04S                  
6HR MIN TEMP:  64; 6HR MAX TEMP:  68;                                

FRANKFORT      SUNNY     69  41  35 N6        30.00F                  
GAYLORD        SUNNY     69  41  36 E3        30.01F                  
6HR MIN TEMP:  69; 6HR MAX TEMP:  73;                                

GRAYLING       SUNNY     70  42  36 N6        30.01S                  
6HR MIN TEMP:  69; 6HR MAX TEMP:  73;                                

HARBOR SPRINGS SUNNY     62  55  77 SW6       30.01S                  
HOUGHTON LAKE  SUNNY     70  45  40 E6        30.01S                  
6HR MIN TEMP:  68; 6HR MAX TEMP:  73;                                

MANISTEE       SUNNY    N/A N/A N/A W6        29.99S                  
OSCODA         SUNNY     65  37  35 SE3       30.01F                  
PELLSTON       SUNNY     70  48  45 NW5       30.00F                  
6HR MIN TEMP:  70; 6HR MAX TEMP:  75;                                

ROGERS CITY    SUNNY     68  46  45 CALM      30.01S                  
TRAVERSE CITY  MOSUNNY   68  50  52 NE7       29.99S                  
6HR MIN TEMP:  68; 6HR MAX TEMP:  73;                                

$$
MIZ007>008-015-030100-
EASTERN UPPER MICHIGAN
  
CITY           SKY/WX    TMP DP  RH WIND       PRES   REMARKS
KINROSS        SUNNY     68  46  45 NW3       29.99S                  
6HR MIN TEMP:  68; 6HR MAX TEMP:  72;                                

MACKINAC ISLAN SUNNY     65  51  60 W6        30.00S                  
6HR MIN TEMP:  65; 6HR MAX TEMP:  70;                                

NEWBERRY       CLOUDY    69  51  53 SW8       29.98S                  
S. S. MARIE    SUNNY     69  45  41 NW3       29.98F                  
6HR MIN TEMP:  69; 6HR MAX TEMP:  72;                                

MUNISING         N/A     72  48  42 S8        29.96S                  
6HR MIN TEMP:  64; 6HR MAX TEMP:  73;                                

$$
MIZ004>006-011>014-085-030100-
CENTRAL UPPER MICHIGAN
  
CITY           SKY/WX    TMP DP  RH WIND       PRES   REMARKS
MANISTIQUE     MOSUNNY   60  46  58 SW8       30.00F                  
6HR MIN TEMP:  60; 6HR MAX TEMP:  66;                                

ESCANABA       SUNNY     66  46  48 S8        30.00S                  
6HR MIN TEMP:  66; 6HR MAX TEMP:  72;                                

MENOMINEE      SUNNY     68  45  42 S6        30.01S                  
6HR MIN TEMP:  68; 6HR MAX TEMP:  72;                                

SAWYER-GWINN   PTSUNNY   70  50  49 S10       29.98S                  
$$
MIZ001>003-009>011-084-030100-
WESTERN UPPER MICHIGAN
  
CITY           SKY/WX    TMP DP  RH WIND       PRES   REMARKS
IRON MOUNTAIN  SUNNY     72  52  49 S6        29.98S                  
6HR MIN TEMP:  72; 6HR MAX TEMP:  76;                                

HOUGHTON       PTSUNNY   70  57  63 W3        29.94F                  
COPPER HARBOR    N/A     67  50  54 SW3       29.94F                  
6HR MIN TEMP:  61; 6HR MAX TEMP:  68;                                

IRONWOOD       MOSUNNY   73  57  56 W6        29.94S                  
6HR MIN TEMP:  73; 6HR MAX TEMP:  75;                                

$$

ABBREVIATIONS USED IN REMARKS
   TC - TEMPERATURE IN CELSIUS
  WCI - WIND CHILL INDEX
   HX - HEAT INDEX
  VSB - VISIBILITY


Return to Home page


Western Regional Climate Center, wrcc@dri.edu